Terug naar catalogus

NOAA 16 DEB

ActiefSSO
NORAD 41084·DEBRIS·🇺🇸 United States

Gelanceerd Sep 21, 2000 vanaf Vandenberg Space Force Base

Loading…

Volgende Passages (komende 24 uur)

TLE

VersSource: Space-Track

Epoch: Sep 14, 2026, 04:48 UTC

1 41084U 00055AT  26257.20049446  .00000816  00000-0  37526-3 0  9999
2 41084  98.6907 342.7519 0014531 325.8560  34.1683 14.23840277558834

Volg NOAA 16 DEB in realtime met AllMySat

Download on the App Store